FW0252 Weather Reports


time (UTC)temp
C
wind
direction
speed
KPH
gust
KPH
rain 1hr
cm
rain 24hr
cm
rain mn
cm
humidity
%
barometer
mb
20260504215043 28 106 1.6 6.4 0.00 0.00 0.00 67 1011.1
20260504214544 28 96 0.0 8.0 0.00 0.00 0.00 66 1011.1
20260504214043 28 96 1.6 9.7 0.00 0.00 0.00 67 1011.1
20260504213543 28 127 0.0 9.7 0.00 0.00 0.00 68 1011.0
20260504213046 28 79 1.6 9.7 0.00 0.00 0.00 67 1011.1
20260504212546 29 71 1.6 9.7 0.00 0.00 0.00 66 1011.1
20260504212043 30 86 1.6 9.7 0.00 0.00 0.00 65 1011.1
20260504211543 30 105 1.6 12.9 0.00 0.00 0.00 64 1011.0
20260504211042 30 94 0.0 12.9 0.00 0.00 0.00 63 1011.0
20260504210542 31 82 3.2 12.9 0.00 0.00 0.00 61 1011.1
20260504210042 31 105 0.0 9.7 0.00 0.00 0.00 61 1011.0
20260504205541 31 93 0.0 8.0 0.00 0.00 0.00 62 1011.0
20260504205041 30 84 3.2 11.3 0.00 0.00 0.00 62 1011.0
20260504204557 30 90 0.0 16.1 0.00 0.00 0.00 63 1011.0
20260504204040 30 88 3.2 16.1 0.00 0.00 0.00 64 1011.0
20260504203540 30 110 3.2 9.7 0.00 0.00 0.00 64 1011.1
20260504203041 30 65 3.2 16.1 0.00 0.00 0.00 64 1011.2
20260504202539 30 91 4.8 16.1 0.00 0.00 0.00 62 1011.3
20260504202042 31 102 3.2 24.1 0.00 0.00 0.00 60 1011.1
20260504201538 31 96 8.0 24.1 0.00 0.00 0.00 59 1011.2
20260504201037 31 88 0.0 12.9 0.00 0.00 0.00 59 1011.2
20260504200539 31 88 1.6 14.5 0.00 0.00 0.00 60 1011.3
20260504200042 31 97 1.6 14.5 0.00 0.00 0.00 61 1011.4
20260504195535 30 96 3.2 11.3 0.00 0.00 0.00 62 1011.4
20260504195035 30 85 1.6 11.3 0.00 0.00 0.00 63 1011.5
20260504194540 30 84 1.6 11.3 0.00 0.00 0.00 63 1011.5
20260504194035 30 96 1.6 11.3 0.00 0.00 0.00 62 1011.6
20260504193535 30 101 0.0 6.4 0.00 0.00 0.00 60 1011.6
20260504193036 31 101 1.6 6.4 0.00 0.00 0.00 59 1011.7
20260504192534 31 100 1.6 9.7 0.00 0.00 0.00 58 1011.7
20260504192033 31 99 1.6 9.7 0.00 0.00 0.00 61 1011.7
20260504191533 31 98 0.0 4.8 0.00 0.00 0.00 61 1011.8
20260504191033 31 120 0.0 6.4 0.00 0.00 0.00 62 1012.0
20260504190531 31 119 0.0 14.5 0.00 0.00 0.00 62 1012.2
20260504190036 30 109 3.2 12.9 0.00 0.00 0.00 60 1012.2
20260504185530 31 90 3.2 12.9 0.00 0.00 0.00 60 1012.3
20260504185028 31 92 3.2 9.7 0.00 0.00 0.00 60 1012.3
20260504184534 30 126 0.0 8.0 0.00 0.00 0.00 63 1012.4
20260504184028 30 118 0.0 14.5 0.00 0.00 0.00 63 1012.5
20260504183528 30 119 4.8 14.5 0.00 0.00 0.00 62 1012.5
20260504183029 31 88 1.6 11.3 0.00 0.00 0.00 63 1012.5
20260504182526 30 88 3.2 11.3 0.00 0.00 0.00 62 1012.6
20260504182026 30 101 3.2 16.1 0.00 0.00 0.00 62 1012.6
20260504181526 30 145 1.6 11.3 0.00 0.00 0.00 62 1012.7
20260504181027 30 85 4.8 11.3 0.00 0.00 0.00 61 1012.7
20260504180524 30 109 1.6 11.3 0.00 0.00 0.00 64 1012.9
20260504180023 30 105 3.2 11.3 0.00 0.00 0.00 64 1012.9
20260504175522 30 92 3.2 9.7 0.00 0.00 0.00 64 1012.9
20260504175021 30 89 3.2 9.7 0.00 0.00 0.00 65 1012.9
20260504174521 30 116 0.0 4.8 0.00 0.00 0.00 65 1012.9
20260504174021 29 115 0.0 4.8 0.00 0.00 0.00 65 1013.1
20260504173521 30 92 0.0 3.2 0.00 0.00 0.00 65 1013.2
20260504173019 29 94 0.0 4.8 0.00 0.00 0.00 67 1013.3
20260504172522 29 94 0.0 11.3 0.00 0.00 0.00 68 1013.3
20260504172018 28 90 3.2 11.3 0.00 0.00 0.00 67 1013.4
20260504171518 28 91 1.6 4.8 0.00 0.00 0.00 68 1013.6
20260504171019 28 91 0.0 4.8 0.00 0.00 0.00 69 1013.6
20260504170517 28 91 0.0 9.7 0.00 0.00 0.00 68 1013.7
20260504151004 26 103 0.0 6.4 0.00 0.00 0.00 73 1014.6
20260504150506 26 103 0.0 6.4 0.00 0.00 0.00 73 1014.6
20260504141053 25 78 0.0 3.2 0.00 0.00 0.00 77 1014.3
20260504140553 25 76 0.0 3.2 0.00 0.00 0.00 77 1014.2
20260504130544 23 74 0.0 3.2 0.00 0.00 0.00 81 1014.0
20260504110534 20 110 0.0 1.6 0.00 0.00 0.00 89 1012.9
20260504100529 20 111 0.0 0.0 0.00 0.00 0.00 90 1012.3
20260504081535 21 111 0.0 4.8 0.00 0.00 0.00 88 1012.6
20260504081017 21 111 0.0 4.8 0.00 0.00 0.00 88 1012.7
20260504080516 21 111 0.0 0.0 0.00 0.00 0.00 88 1012.9
20260504050507 21 111 0.0 0.0 0.00 0.00 0.00 89 1013.6
20260504050014 21 111 0.0 0.0 0.00 0.00 0.00 89 1014.2
20260504045506 21 111 0.0 1.6 0.00 0.00 0.00 89 1014.3
20260504045006 21 111 0.0 1.6 0.00 0.00 0.00 89 1014.3
20260504044506 21 111 0.0 4.8 0.00 0.00 0.00 89 1014.3
20260504044007 21 112 0.0 4.8 0.00 0.00 0.00 89 1014.2
20260504043508 21 112 0.0 0.0 0.00 0.00 0.00 89 1014.3
20260504043005 21 112 0.0 0.0 0.00 0.00 0.00 89 1014.2
20260504042504 21 112 0.0 0.0 0.00 0.00 0.00 88 1014.1
20260504042007 21 112 0.0 0.0 0.00 0.00 0.00 88 1013.9
20260504041505 21 112 0.0 3.2 0.00 0.00 0.00 88 1014.0
20260504041003 21 112 0.0 3.2 0.00 0.00 0.00 88 1014.0
20260504040503 21 112 0.0 3.2 0.00 0.00 0.00 88 1014.1
20260504040100 21 111 0.0 1.6 0.00 0.00 0.00 88 1014.1
20260504040003 21 111 0.0 1.6 0.00 0.00 0.00 88 1014.1
20260504035600 21 111 0.0 1.6 0.00 0.08 0.00 88 1014.1
20260504035100 21 111 0.0 1.6 0.00 0.08 0.00 88 1014.2
20260504034600 21 111 0.0 3.2 0.00 0.08 0.00 88 1014.3
20260504034059 21 111 0.0 3.2 0.00 0.08 0.00 89 1014.2
20260504033559 21 111 0.0 0.0 0.00 0.08 0.00 89 1014.2
20260504033103 21 111 0.0 0.0 0.00 0.08 0.00 89 1014.5
20260504032600 21 111 0.0 1.6 0.00 0.08 0.00 89 1014.4
20260504032100 21 111 0.0 1.6 0.00 0.08 0.00 89 1014.2
20260504031603 21 111 0.0 6.4 0.00 0.08 0.00 88 1014.1
20260504031058 21 109 0.0 6.4 0.00 0.08 0.00 88 1014.0
20260504030559 21 110 0.0 0.0 0.00 0.08 0.00 88 1014.1
20260504030058 21 110 0.0 1.6 0.00 0.08 0.00 88 1014.4
20260504025558 21 110 0.0 1.6 0.00 0.56 0.00 88 1014.8
20260504025058 21 110 0.0 0.0 0.00 0.56 0.00 88 1014.9
20260504024558 21 110 0.0 0.0 0.00 0.56 0.00 89 1014.8
20260504024059 21 110 0.0 1.6 0.00 0.56 0.00 89 1014.8
20260504023557 21 110 0.0 1.6 0.00 0.56 0.00 89 1014.9
20260504023057 21 110 0.0 3.2 0.00 0.56 0.00 89 1015.0
20260504022558 21 110 0.0 1.6 0.00 0.56 0.00 89 1014.9
20260504022057 21 110 0.0 1.6 0.00 0.56 0.00 89 1014.7
20260504021558 21 110 0.0 0.0 0.00 0.56 0.00 88 1014.7
20260504021100 21 110 0.0 0.0 0.00 0.56 0.00 88 1014.6
20260504020557 21 110 0.0 0.0 0.00 0.56 0.00 88 1014.5
20260504020132 21 110 0.0 0.0 0.00 0.56 0.00 88 1014.2
20260504015556 21 110 0.0 0.0 0.00 0.61 0.00 87 1014.2
20260504015056 21 110 0.0 3.2 0.00 0.61 0.00 87 1014.2
20260504014604 21 110 0.0 3.2 0.00 0.61 0.00 87 1014.4
20260504014055 21 110 0.0 1.6 0.00 0.61 0.00 86 1014.4
20260504013556 22 111 0.0 0.0 0.00 0.61 0.00 86 1014.3
20260504013116 22 111 0.0 0.0 0.00 0.61 0.00 85 1014.4
20260504012556 22 111 0.0 0.0 0.00 0.61 0.00 85 1014.4
20260504012059 22 111 0.0 0.0 0.00 0.61 0.00 84 1014.4
20260504011555 22 111 0.0 0.0 0.00 0.61 0.00 84 1014.3
20260504011055 22 111 0.0 3.2 0.00 0.61 0.00 83 1014.2
20260504010555 22 111 0.0 4.8 0.00 0.61 0.00 83 1014.0
20260504010055 22 111 0.0 4.8 0.00 0.61 0.00 83 1013.9
20260504005556 22 111 0.0 4.8 0.00 0.61 0.00 83 1013.9
20260504005056 22 178 0.0 9.7 0.00 0.61 0.00 83 1013.8
20260504004628 22 182 1.6 9.7 0.00 0.61 0.00 84 1013.7
20260504004054 22 140 0.0 8.0 0.00 0.61 0.00 84 1013.6
20260504003554 22 140 0.0 8.0 0.00 0.61 0.00 84 1013.6
20260504003100 22 109 0.0 4.8 0.00 0.61 0.00 85 1013.7
20260504002555 22 109 0.0 4.8 0.00 0.61 0.00 85 1013.7
20260504002054 22 109 0.0 0.0 0.00 0.61 0.00 85 1013.6
20260504001620 22 109 0.0 3.2 0.00 0.61 0.00 85 1013.7
20260504001054 22 109 0.0 3.2 0.00 0.61 0.00 85 1013.6
20260504000553 22 109 0.0 3.2 0.00 0.61 0.00 85 1013.6
20260504000104 22 109 0.0 3.2 0.00 0.61 0.00 85 1013.6
20260503235556 22 109 0.0 3.2 0.00 0.71 0.00 85 1013.5
20260503235054 22 109 0.0 0.0 0.00 0.71 0.00 84 1013.5
20260503234600 22 109 0.0 3.2 0.00 0.71 0.00 84 1013.3
20260503234053 22 109 0.0 3.2 0.00 0.71 0.00 83 1013.2
20260503233553 22 109 0.0 3.2 0.00 0.71 0.00 83 1013.2
20260503233057 22 109 0.0 3.2 0.00 0.71 0.00 83 1013.1
20260503232552 22 109 0.0 1.6 0.00 0.71 0.00 83 1013.2
20260503232052 22 109 0.0 3.2 0.00 0.71 0.00 83 1013.2
20260503231552 22 111 0.0 4.8 0.00 0.71 0.00 82 1013.1
20260503231052 22 110 0.0 4.8 0.00 0.71 0.00 82 1013.1
20260503230555 22 111 0.0 4.8 0.00 0.71 0.00 82 1013.0
20260503230109 22 108 0.0 4.8 0.00 0.71 0.00 82 1013.0
20260503225551 22 108 0.0 4.8 0.00 0.91 0.00 82 1013.1
20260503225051 22 108 0.0 1.6 0.00 0.91 0.00 84 1013.0
20260503224556 22 108 0.0 3.2 0.00 0.91 0.00 84 1013.0
20260503224052 23 108 0.0 3.2 0.00 0.91 0.00 84 1013.0
20260503223551 23 108 0.0 3.2 0.00 0.91 0.00 84 1012.9
20260503223051 23 108 0.0 3.2 0.00 0.91 0.00 84 1013.0
20260503222552 23 108 0.0 3.2 0.00 0.91 0.00 83 1012.9
20260503222050 23 108 0.0 3.2 0.00 0.91 0.00 83 1012.8
20260503221601 23 108 0.0 3.2 0.00 0.91 0.00 83 1012.8
20260503221051 23 108 0.0 3.2 0.00 0.91 0.00 83 1012.8
20260503220551 23 108 0.0 3.2 0.00 0.91 0.00 83 1012.8
20260503220051 23 108 0.0 4.8 0.00 0.91 0.00 83 1012.7
20260503215550 23 108 0.0 4.8 0.00 0.91 0.00 83 1012.7